Location: Bothwell
(42.3833°S, 147.0000°E)
Time: 09:14:33
(UTC+10:00)

UNISAT 6 - Pass Details

Date: 12 August 2024
Orbit: 589 x 662 km, 97.7° (Epoch: 14 September)

Event Time Altitude Azimuth Distance (km) Brightness Sun altitude
Rises 04:21:35 0° 162° (SSE) 3,044 ? -31.2°
Reaches altitude 10° 04:23:56 10° 155° (SSE) 2,124 ? -30.8°
Maximum altitude 04:28:24 45° 82° (E) 919 ? -30.0°
Enters shadow 04:28:48 44° 66° (ENE) 934 ? -29.9°
